GFSNW_700_temp_237.txt.gz
Temp
-4 -3 -3 -3 -3 -3 -2 -2 -2 -1 -1 -2 -1 -1 -2 -2 -0 0 1 1 2 2 3 3 3 4 4 5 5 5 4 3 4 4 4 3 3 3 3 3 1 1 1 1
-4 -4 -3 -3 -4 -3 -3 -2 -2 -2 -3 -2 -2 -2 -2 -2 -2 -1 0 1 1 2 2 1 3 3 4 4 4 4 3 1 1 3 3 2 2 2 3 3 2 1 -1 2
-5 -4 -4 -4 -4 -3 -3 -3 -3 -3 -2 -2 -2 -2 -2 -2 -2 -1 -0 0 1 1 1 1 1 2 3 3 3 3 3 1 1 1 3 2 2 2 2 2 1 2 0 2
-5 -4 -4 -4 -4 -4 -4 -3 -3 -3 -2 -3 -2 -2 -2 -2 -2 -2 -1 -1 -0 0 -0 1 1 1 1 2 2 2 2 2 2 -0 0 1 1 2 1 1 1 1 1 2
-6 -5 -6 -5 -5 -5 -5 -3 -3 -3 -4 -3 -2 -2 -3 -3 -2 -2 -0 -0 1 -0 -1 0 1 1 0 0 0 1 1 0 -0 0 0 0 1 1 1 1 1 1 1 2
-6 -6 -7 -7 -7 -7 -4 -4 -4 -3 -2 -3 -2 -2 -2 -2 -2 -1 -0 0 -0 -0 -0 -0 -1 -0 -0 -0 0 -0 0 -0 -1 -1 -1 -0 0 1 1 1 1 1 0 0
-7 -7 -7 -8 -7 -7 -5 -3 -4 -4 -3 -2 -2 -2 -2 -2 -1 -1 -0 -1 -1 0 -1 -1 -1 -1 -0 -0 0 -0 -0 -1 -1 -1 -1 -1 1 1 1 0 0 -0 -0 -1
-7 -7 -8 -8 -7 -8 -6 -5 -5 -4 -4 -4 -4 -3 -4 -4 -3 -3 -3 -2 -2 -2 -2 -2 -2 -2 -1 0 -0 -0 -0 -1 -1 -1 -1 0 0 1 0 0 0 -0 -1 -2
-8 -8 -9 -8 -7 -7 -7 -7 -6 -6 -5 -4 -5 -5 -4 -3 -3 -3 -4 -3 -3 -3 -3 -3 -3 -2 -1 -1 -0 -0 -1 -2 -1 -1 -2 -2 -0 0 0 -0 -2 -1 -2 -3
-9 -9 -9 -8 -7 -7 -7 -7 -7 -7 -7 -6 -5 -5 -5 -4 -4 -3 -3 -3 -3 -3 -2 -2 -3 -2 -1 -2 -1 -1 -1 -2 -2 -2 -1 -1 -1 -1 -1 -3 -2 -2 -4 -4
-9 -9 -8 -8 -8 -7 -7 -7 -7 -7 -7 -7 -6 -6 -5 -5 -4 -4 -4 -3 -3 -3 -3 -3 -2 -2 -2 -2 -1 -1 -2 -2 -2 -2 -2 -2 -1 -1 -2 -3 -3 -4 -5 -5
-9 -9 -9 -8 -8 -8 -8 -7 -7 -7 -8 -7 -7 -6 -6 -6 -5 -4 -3 -4 -3 -2 -2 -2 -2 -2 -2 -1 -2 -2 -2 -1 -1 -2 -1 -1 -2 -2 -2 -3 -5 -5 -5 -6
-9 -9 -9 -8 -8 -8 -8 -8 -7 -8 -8 -8 -7 -7 -6 -6 -6 -5 -4 -4 -3 -2 -3 -2 -2 -2 -2 -2 -2 -2 -2 -2 -2 -2 -2 -2 -2 -3 -3 -4 -5 -6 -7 -7
-9 -9 -9 -8 -8 -8 -8 -7 -7 -8 -8 -9 -8 -8 -6 -6 -6 -5 -4 -4 -4 -3 -3 -3 -3 -3 -3 -2 -2 -2 -2 -2 -2 -2 -2 -3 -3 -4 -4 -5 -6 -7 -7 -7
-9 -9 -9 -9 -8 -8 -8 -7 -8 -8 -8 -8 -8 -8 -8 -7 -5 -5 -4 -4 -4 -4 -4 -4 -3 -3 -3 -2 -2 -3 -2 -2 -2 -3 -3 -3 -4 -4 -5 -6 -6 -7 -7 -7
-9 -8 -8 -8 -8 -8 -8 -8 -8 -8 -7 -8 -8 -8 -7 -7 -5 -6 -5 -5 -5 -5 -4 -4 -4 -4 -3 -3 -3 -2 -2 -2 -3 -3 -3 -4 -5 -5 -5 -6 -7 -7 -7 -7
-9 -8 -8 -8 -8 -8 -7 -8 -6 -7 -8 -8 -9 -9 -8 -7 -5 -6 -6 -4 -4 -4 -5 -5 -4 -4 -3 -3 -3 -2 -2 -3 -3 -3 -4 -5 -5 -6 -6 -7 -7 -7 -7 -7
-8 -8 -8 -8 -8 -8 -8 -7 -7 -7 -8 -9 -9 -9 -8 -7 -6 -5 -4 -4 -5 -5 -6 -4 -4 -4 -4 -4 -3 -3 -3 -3 -3 -4 -5 -6 -6 -7 -7 -7 -7 -7 -7 -8
-8 -8 -8 -8 -8 -8 -8 -7 -7 -8 -8 -9 -9 -9 -8 -7 -7 -6 -5 -4 -4 -5 -5 -5 -5 -4 -4 -3 -3 -3 -3 -3 -4 -6 -6 -7 -7 -7 -7 -6 -7 -7 -8 -9
-8 -8 -8 -8 -8 -8 -8 -8 -8 -8 -8 -8 -8 -8 -8 -7 -6 -6 -7 -6 -6 -5 -5 -5 -5 -5 -2 -3 -4 -4 -4 -5 -6 -6 -7 -7 -6 -6 -6 -7 -7 -7 -9 -9
-9 -8 -8 -7 -7 -8 -8 -8 -8 -8 -9 -8 -8 -8 -7 -7 -6 -5 -6 -6 -5 -5 -4 -5 -5 -3 -1 -2 -2 -4 -5 -6 -7 -7 -7 -6 -6 -7 -7 -7 -7 -8 -9 -9
-8 -8 -8 -8 -7 -8 -8 -8 -8 -8 -8 -8 -7 -7 -8 -7 -7 -7 -7 -6 -5 -4 -6 -7 -5 -2 -1 -1 -3 -4 -5 -7 -7 -7 -7 -7 -7 -7 -6 -7 -8 -8 -9 -10
-8 -8 -8 -8 -8 -8 -9 -8 -7 -7 -7 -7 -6 -7 -8 -8 -8 -8 -6 -6 -6 -6 -7 -5 -3 -2 -1 -1 -3 -5 -6 -7 -7 -7 -7 -7 -6 -6 -7 -8 -8 -9 -10 -10
-8 -8 -9 -8 -8 -8 -7 -6 -6 -6 -5 -5 -5 -6 -8 -8 -8 -7 -6 -6 -7 -8 -7 -4 -2 -1 -0 -1 -3 -5 -6 -7 -7 -7 -7 -6 -7 -7 -7 -8 -9 -10 -10 -11
-8 -8 -7 -7 -8 -6 -6 -5 -6 -6 -5 -5 -6 -7 -7 -8 -7 -6 -7 -7 -7 -5 -3 -2 -1 -0 -1 -2 -3 -6 -7 -7 -7 -7 -6 -7 -7 -7 -8 -9 -9 -10 -11 -12
-8 -7 -6 -6 -6 -6 -5 -5 -5 -5 -5 -6 -6 -8 -8 -7 -6 -6 -5 -5 -4 -2 -1 0 0 -1 -1 -3 -5 -7 -7 -7 -6 -6 -7 -6 -7 -8 -9 -9 -9 -10 -11 -12
-7 -6 -6 -6 -5 -5 -5 -4 -4 -5 -5 -5 -6 -7 -6 -6 -6 -5 -4 -3 -3 -2 -1 0 -0 -2 -2 -4 -6 -6 -6 -6 -7 -7 -6 -7 -7 -8 -8 -9 -10 -11 -12 -13

GFSNW_700_temp_240.txt.gz
Temp
-4 -4 -4 -3 -3 -3 -2 -2 -2 -1 -0 -1 -2 -1 -1 -1 -1 -1 1 1 1 1 2 3 3 3 4 4 4 4 4 4 3 3 2 2 3 3 3 1 0 1 2 1
-5 -4 -4 -4 -4 -3 -3 -3 -2 -2 -1 -3 -2 -2 -1 -2 -2 -1 -1 -0 0 1 1 1 2 3 3 3 3 3 3 2 2 1 1 1 1 2 2 2 2 2 0 2
-5 -5 -5 -4 -4 -4 -3 -4 -3 -3 -3 -3 -3 -3 -2 -2 -2 -2 -2 -1 -0 -0 0 1 1 1 2 2 2 2 2 2 2 2 2 2 1 -0 -0 0 1 2 2 2
-6 -5 -5 -5 -5 -4 -4 -4 -4 -3 -2 -2 -3 -2 -2 -2 -3 -2 -2 -2 -1 -0 0 0 0 1 1 1 1 1 1 1 1 1 0 1 1 1 0 0 1 1 2 1
-6 -6 -6 -5 -6 -5 -5 -4 -4 -3 -2 -2 -2 -3 -2 -3 -2 -3 -1 -2 -1 -1 -1 -1 -0 -0 -1 -0 0 0 0 -0 0 0 0 0 -1 -0 0 0 1 1 2 1
-6 -6 -6 -6 -6 -7 -4 -4 -4 -4 -3 -4 -3 -3 -2 -3 -2 -2 -2 -2 -2 -2 -1 -1 -2 -2 -1 -1 -1 -1 -1 -1 -0 -1 -1 -1 -1 1 1 2 2 2 1 2
-6 -6 -6 -6 -7 -7 -6 -4 -5 -5 -4 -4 -4 -3 -3 -3 -2 -3 -2 -2 -2 -1 -2 -2 -2 -2 -1 -1 -1 -1 -1 -1 -2 -1 -1 -2 1 0 1 1 2 1 1 1
-6 -6 -6 -6 -6 -8 -8 -6 -6 -5 -5 -5 -4 -4 -3 -4 -3 -3 -3 -3 -3 -3 -3 -3 -2 -2 -1 0 0 -0 -0 -1 -2 -1 -1 -1 -0 1 1 1 1 0 0 -1
-7 -7 -7 -7 -6 -8 -8 -8 -7 -7 -6 -6 -5 -5 -5 -4 -4 -3 -3 -3 -3 -3 -3 -3 -3 -3 -2 -1 -1 1 -0 -1 -2 -2 -2 -2 0 -0 -0 -0 -1 0 -0 -1
-7 -7 -7 -7 -7 -8 -8 -8 -8 -8 -7 -7 -6 -5 -4 -4 -4 -4 -3 -3 -3 -4 -3 -2 -4 -4 -3 -2 -1 -1 -0 -1 -2 -2 -2 -1 -1 -1 -1 -2 -1 -2 -2 -2
-7 -7 -7 -7 -7 -8 -8 -7 -7 -8 -7 -7 -7 -6 -6 -5 -5 -4 -3 -4 -4 -3 -4 -3 -4 -3 -3 -3 -2 -2 -1 -1 -1 -2 -3 -2 -1 -1 -2 -2 -3 -3 -3 -4
-8 -8 -8 -8 -8 -8 -8 -7 -7 -8 -8 -7 -7 -7 -6 -6 -5 -5 -4 -4 -4 -4 -3 -3 -3 -3 -3 -3 -3 -2 -2 -1 -1 -1 -1 -0 -2 -2 -2 -2 -3 -3 -4 -5
-9 -9 -8 -8 -8 -8 -8 -8 -8 -7 -7 -7 -8 -7 -7 -7 -6 -5 -4 -4 -4 -4 -3 -3 -3 -4 -3 -3 -3 -2 -2 -2 -2 -2 -2 -2 -2 -2 -2 -3 -3 -4 -5 -6
-10 -9 -9 -9 -9 -8 -8 -8 -7 -7 -7 -8 -8 -8 -7 -7 -7 -6 -6 -5 -4 -4 -3 -3 -3 -4 -3 -3 -3 -3 -3 -3 -3 -2 -2 -2 -2 -3 -3 -4 -4 -5 -5 -6
-9 -9 -9 -9 -9 -9 -9 -8 -8 -8 -7 -8 -8 -8 -8 -8 -6 -6 -6 -6 -6 -4 -4 -4 -4 -4 -4 -4 -4 -4 -3 -3 -3 -2 -2 -2 -3 -3 -4 -5 -6 -5 -6 -7
-9 -9 -9 -9 -9 -9 -8 -8 -8 -8 -7 -8 -8 -8 -8 -8 -7 -7 -6 -6 -5 -6 -5 -5 -5 -5 -5 -5 -5 -4 -3 -3 -3 -3 -3 -3 -3 -4 -5 -6 -5 -6 -7 -7
-9 -9 -9 -9 -9 -8 -8 -8 -7 -7 -8 -8 -8 -8 -8 -7 -8 -7 -7 -6 -6 -6 -6 -6 -5 -5 -5 -5 -5 -4 -2 -3 -3 -4 -4 -3 -4 -5 -6 -5 -6 -7 -7 -7
-9 -9 -9 -9 -9 -9 -8 -8 -8 -8 -8 -8 -8 -8 -8 -7 -7 -7 -7 -6 -6 -6 -7 -6 -5 -6 -5 -5 -3 -2 -2 -2 -3 -3 -3 -4 -5 -6 -6 -6 -7 -7 -7 -7
-9 -9 -9 -9 -8 -8 -8 -8 -8 -8 -8 -8 -8 -8 -8 -8 -7 -7 -6 -7 -5 -6 -6 -6 -6 -5 -5 -4 -2 -2 -2 -2 -3 -4 -5 -5 -6 -6 -6 -7 -7 -7 -7 -7
-9 -9 -9 -8 -8 -8 -9 -8 -8 -8 -8 -7 -7 -8 -8 -7 -7 -7 -7 -6 -6 -6 -5 -5 -5 -3 -2 -2 -1 -2 -2 -2 -3 -5 -5 -6 -6 -7 -7 -7 -7 -7 -7 -8
-9 -8 -8 -8 -8 -9 -8 -8 -8 -8 -8 -8 -8 -8 -7 -7 -7 -7 -8 -7 -7 -6 -6 -6 -6 -4 -1 -1 -1 -1 -1 -2 -5 -5 -5 -6 -7 -7 -7 -7 -7 -7 -8 -8
-8 -8 -8 -8 -8 -8 -8 -8 -8 -8 -7 -8 -8 -8 -8 -7 -7 -7 -8 -7 -7 -5 -7 -7 -6 -2 -1 -2 -1 -1 -1 -3 -5 -6 -5 -7 -7 -7 -6 -7 -7 -7 -8 -10
-8 -8 -9 -8 -8 -8 -8 -8 -7 -7 -7 -7 -7 -7 -8 -8 -8 -8 -8 -7 -7 -7 -8 -6 -4 -3 -2 -2 -1 -1 -2 -4 -5 -5 -5 -7 -7 -6 -7 -7 -7 -8 -9 -9
-8 -8 -8 -7 -8 -8 -7 -7 -6 -6 -6 -6 -6 -6 -6 -7 -8 -8 -8 -7 -8 -9 -8 -4 -3 -2 -1 -0 -0 -1 -2 -4 -5 -5 -6 -7 -6 -7 -7 -7 -8 -9 -9 -10
-8 -8 -8 -7 -7 -6 -6 -6 -6 -6 -5 -4 -5 -6 -7 -8 -8 -8 -8 -7 -8 -6 -5 -3 -2 -1 -0 -0 -1 -2 -5 -5 -5 -6 -6 -6 -7 -7 -7 -8 -9 -9 -9 -10
-8 -7 -7 -6 -6 -5 -5 -5 -5 -5 -4 -5 -7 -9 -9 -8 -8 -8 -7 -8 -5 -3 -2 -2 -1 -0 -0 -1 -2 -4 -6 -7 -6 -6 -6 -6 -7 -7 -7 -8 -8 -9 -10 -10
-7 -6 -6 -6 -5 -4 -4 -4 -4 -5 -4 -5 -6 -8 -7 -8 -8 -7 -7 -6 -4 -3 -2 -2 -1 -1 -1 -2 -3 -4 -6 -6 -6 -6 -6 -6 -7 -8 -8 -8 -9 -9 -9 -10

GFSNW_700_temp_243.txt.gz
Temp
-4 -4 -4 -3 -3 -3 -3 -2 -1 -1 -0 -2 -2 -1 -1 -1 -1 -0 1 1 2 2 2 2 2 3 3 3 3 3 4 3 3 3 3 3 2 2 -0 0 0 -0 -0 1
-5 -5 -4 -4 -4 -3 -3 -3 -2 -1 -2 -2 -3 -2 -1 -1 -1 -1 -1 -0 0 1 1 1 2 2 2 3 3 2 2 2 2 2 2 1 2 2 1 0 -0 -1 -0 2
-5 -5 -5 -5 -4 -3 -4 -4 -4 -3 -4 -3 -2 -3 -2 -2 -2 -2 -2 -1 -1 -0 -0 1 1 1 1 1 2 2 1 1 1 1 1 1 1 1 1 1 -0 0 0 3
-5 -5 -5 -5 -5 -4 -4 -4 -4 -3 -3 -4 -3 -4 -3 -3 -2 -2 -1 -2 -1 -1 -1 -1 -0 0 0 0 0 1 1 1 0 1 1 1 1 -0 0 0 1 -1 3 2
-6 -6 -6 -6 -6 -5 -5 -4 -4 -4 -4 -3 -4 -4 -4 -3 -2 -2 -2 -2 -2 -1 -2 -1 -1 -2 -1 -1 -0 -0 0 -0 -0 -1 -1 -0 -0 -1 1 1 1 -0 2 2
-6 -6 -6 -6 -6 -6 -5 -5 -5 -5 -4 -4 -4 -4 -4 -3 -3 -3 -2 -1 -2 -2 -2 -2 -2 -2 -1 -1 -1 -1 -1 -1 -1 -1 -1 -1 -1 1 1 1 1 1 1 1
-7 -6 -6 -6 -6 -6 -5 -4 -5 -5 -5 -5 -5 -4 -3 -3 -3 -2 -2 -2 -2 -2 -2 -3 -2 -2 -2 -2 -1 -1 -0 -1 -2 -1 -1 -1 1 1 1 0 1 1 1 1
-7 -7 -6 -6 -6 -6 -7 -5 -6 -5 -5 -6 -5 -5 -4 -4 -3 -3 -3 -3 -3 -3 -2 -3 -3 -3 -3 -2 -1 -0 -1 -2 -2 -1 -1 -0 -1 1 1 0 0 0 0 -1
-7 -7 -7 -6 -6 -6 -8 -7 -6 -7 -7 -6 -6 -5 -5 -5 -3 -3 -3 -3 -3 -3 -3 -3 -3 -2 -2 -2 -1 0 -1 -2 -3 -2 -2 -1 0 0 -0 -0 -1 -0 -1 -2
-7 -7 -6 -7 -6 -7 -8 -8 -8 -8 -8 -7 -7 -6 -5 -5 -5 -4 -3 -3 -4 -3 -4 -4 -3 -3 -3 -2 -2 -1 -2 -3 -3 -2 -3 -2 -1 -1 -1 -2 -2 -2 -2 -3
-7 -7 -7 -7 -7 -7 -8 -8 -8 -8 -9 -8 -8 -7 -7 -5 -5 -4 -4 -4 -4 -4 -4 -3 -4 -3 -3 -3 -2 -2 -2 -2 -2 -3 -3 -2 -0 -1 -1 -2 -3 -3 -3 -3
-7 -7 -7 -7 -7 -7 -8 -8 -8 -8 -8 -8 -7 -7 -7 -7 -5 -5 -4 -4 -4 -4 -4 -3 -4 -3 -3 -2 -3 -3 -3 -3 -2 -2 -1 -1 -1 -1 -2 -2 -2 -2 -3 -4
-7 -7 -7 -7 -7 -7 -8 -9 -9 -8 -8 -8 -8 -8 -8 -7 -6 -5 -5 -4 -4 -4 -4 -4 -4 -4 -3 -3 -3 -3 -3 -3 -3 -2 -2 -2 -2 -2 -2 -1 -2 -3 -4 -5
-8 -8 -8 -8 -8 -8 -9 -9 -9 -8 -7 -8 -7 -8 -7 -8 -7 -6 -5 -5 -4 -4 -4 -4 -4 -4 -4 -3 -3 -3 -3 -3 -3 -3 -2 -2 -1 -2 -2 -3 -3 -4 -5 -6
-9 -9 -9 -9 -9 -9 -9 -9 -9 -8 -8 -7 -7 -7 -7 -8 -7 -6 -6 -6 -5 -5 -5 -4 -4 -4 -4 -4 -4 -5 -4 -2 -3 -2 -2 -3 -3 -3 -4 -4 -4 -5 -6 -6
-10 -10 -9 -9 -9 -10 -10 -10 -9 -8 -8 -7 -8 -8 -7 -7 -7 -7 -6 -6 -6 -6 -5 -4 -4 -4 -5 -6 -5 -4 -3 -2 -2 -2 -2 -2 -3 -4 -4 -4 -5 -6 -6 -6
-10 -10 -10 -10 -10 -10 -10 -10 -9 -8 -9 -8 -8 -8 -8 -8 -8 -7 -7 -7 -6 -6 -6 -6 -6 -6 -5 -6 -6 -6 -2 -2 -2 -2 -2 -1 -3 -4 -5 -5 -6 -6 -6 -7
-10 -10 -10 -10 -10 -10 -10 -9 -9 -8 -9 -9 -8 -8 -8 -8 -7 -6 -6 -7 -7 -6 -6 -6 -5 -6 -6 -6 -6 -2 -2 -2 -2 -2 -2 -2 -3 -5 -5 -6 -5 -6 -6 -7
-9 -9 -10 -10 -10 -10 -9 -10 -9 -9 -8 -8 -8 -8 -8 -8 -8 -7 -7 -7 -7 -7 -6 -6 -6 -6 -5 -5 -3 -2 -1 -1 -1 -1 -2 -2 -4 -5 -6 -5 -6 -6 -7 -7
-9 -9 -9 -9 -9 -9 -9 -10 -8 -8 -8 -8 -8 -7 -7 -7 -7 -7 -6 -7 -7 -8 -6 -6 -6 -4 -4 -3 -2 -2 -2 -1 -1 -1 -2 -3 -4 -5 -6 -6 -6 -6 -7 -7
-9 -9 -9 -9 -8 -9 -8 -8 -8 -8 -8 -8 -7 -7 -7 -7 -7 -7 -7 -7 -8 -9 -7 -7 -6 -5 -3 -1 -2 -1 -1 -0 -1 -1 -2 -3 -5 -7 -6 -6 -6 -7 -7 -7
-9 -9 -9 -9 -9 -9 -8 -8 -8 -8 -8 -7 -6 -6 -8 -7 -8 -7 -8 -8 -8 -7 -7 -8 -6 -5 -2 -1 -0 -1 -1 -1 -1 -2 -3 -4 -6 -6 -6 -6 -7 -7 -7 -8
-10 -9 -9 -8 -8 -8 -8 -8 -8 -8 -6 -6 -6 -7 -8 -8 -8 -8 -7 -7 -8 -7 -8 -7 -5 -4 -3 -1 -1 -1 -1 -1 -2 -2 -4 -6 -7 -6 -6 -6 -7 -7 -7 -7
-9 -8 -8 -8 -8 -8 -7 -7 -6 -5 -5 -6 -7 -7 -7 -8 -8 -7 -7 -7 -8 -8 -9 -6 -4 -2 -2 -1 -1 -1 -1 -2 -2 -3 -5 -7 -6 -6 -6 -7 -7 -7 -7 -9
-8 -8 -8 -8 -7 -6 -6 -6 -6 -6 -6 -6 -6 -7 -7 -8 -8 -8 -7 -7 -8 -7 -6 -3 -2 -2 -2 -2 -2 -1 -2 -2 -3 -4 -5 -6 -6 -7 -7 -7 -7 -7 -8 -9
-8 -8 -8 -7 -6 -6 -6 -5 -6 -6 -5 -6 -6 -9 -8 -9 -8 -8 -7 -7 -7 -5 -3 -2 -2 -2 -2 -2 -1 -1 -2 -4 -4 -5 -6 -7 -7 -7 -7 -7 -7 -8 -9 -10
-8 -7 -6 -6 -6 -5 -5 -5 -5 -6 -5 -5 -8 -7 -8 -8 -8 -8 -7 -6 -3 -3 -3 -3 -3 -2 -2 -2 -2 -1 -3 -4 -5 -6 -7 -7 -7 -7 -7 -7 -8 -9 -10 -10

GFSNW_700_temp_246.txt.gz
Temp
-7 -5 -5 -4 -3 -2 -2 -1 -2 -1 -1 -2 -2 -1 0 -1 -1 -0 1 2 2 3 3 2 3 3 3 3 3 3 4 3 4 4 4 3 3 3 3 2 3 1 0 1
-6 -6 -5 -5 -4 -3 -2 -3 -2 -1 -2 -3 -2 -3 -2 -1 -2 -1 -1 1 2 2 2 2 2 2 2 3 3 2 3 2 4 3 2 2 2 2 2 2 1 0 0 3
-7 -6 -6 -5 -4 -4 -4 -4 -4 -3 -4 -4 -4 -3 -3 -2 -1 -1 -1 -1 -0 0 0 1 1 1 1 1 2 2 2 2 2 3 3 2 1 1 0 0 -0 1 2 3
-7 -6 -6 -6 -5 -5 -5 -4 -4 -3 -5 -4 -4 -4 -3 -2 -2 -1 -1 -1 -1 -1 -0 -0 -0 0 0 1 0 1 1 0 0 1 1 0 0 1 1 1 1 1 1 2
-8 -7 -6 -5 -5 -6 -6 -5 -5 -4 -4 -4 -4 -4 -4 -3 -3 -2 -1 -2 -1 -2 -1 -1 -1 -1 -1 -1 -1 -0 0 -0 0 0 1 -0 -0 0 0 0 1 1 1 1
-7 -7 -7 -6 -6 -7 -6 -5 -4 -5 -5 -4 -4 -3 -4 -3 -3 -3 -2 -2 -2 -2 -2 -2 -2 -2 -1 -1 -1 -2 -1 -1 -1 -0 -0 -0 -0 2 1 1 1 1 1 1
-7 -7 -7 -7 -7 -6 -7 -6 -5 -5 -6 -5 -5 -4 -4 -3 -3 -3 -2 -2 -2 -3 -2 -2 -2 -2 -2 -2 -1 -1 -1 -1 -2 -1 -1 -0 2 1 1 1 0 1 1 1
-7 -7 -7 -7 -7 -7 -7 -6 -6 -6 -6 -5 -5 -6 -5 -3 -4 -3 -3 -3 -3 -3 -3 -3 -3 -3 -3 -2 -2 -1 -0 -2 -2 -1 0 1 1 1 0 0 0 0 0 -0
-7 -7 -7 -7 -7 -7 -8 -7 -6 -7 -7 -6 -6 -6 -5 -4 -3 -4 -4 -3 -3 -3 -3 -3 -3 -2 -1 -2 -1 -0 -1 -2 -3 -2 -2 1 1 0 0 -0 -0 -1 -2 -2
-8 -7 -7 -7 -7 -7 -8 -8 -8 -8 -8 -8 -6 -6 -6 -4 -4 -3 -3 -3 -4 -3 -3 -3 -3 -3 -2 -1 -2 -0 -2 -3 -3 -2 -2 -2 -0 -0 -1 -2 -1 -1 -2 -3
-8 -8 -7 -7 -7 -7 -8 -8 -8 -8 -8 -8 -7 -6 -6 -5 -4 -4 -4 -4 -4 -3 -4 -4 -3 -3 -2 -2 -1 -1 -1 -3 -3 -3 -3 -2 -0 -1 -2 -1 -2 -2 -3 -3
-8 -8 -7 -7 -7 -7 -8 -8 -8 -8 -8 -8 -7 -7 -6 -5 -5 -4 -4 -4 -4 -3 -3 -3 -3 -3 -3 -2 -2 -2 -2 -2 -2 -2 -2 -1 -1 -1 -1 -2 -2 -2 -3 -3
-8 -8 -8 -7 -7 -7 -8 -8 -8 -8 -7 -8 -8 -7 -7 -7 -6 -5 -4 -4 -4 -4 -3 -3 -3 -3 -3 -3 -3 -2 -3 -2 -2 -2 -1 -2 -1 -1 -2 -2 -3 -3 -3 -4
-8 -8 -8 -7 -7 -8 -9 -8 -8 -8 -8 -8 -7 -7 -7 -7 -7 -6 -5 -5 -5 -4 -4 -4 -4 -4 -4 -4 -3 -3 -3 -3 -2 -2 -1 -2 -1 -1 -2 -3 -4 -4 -4 -5
-8 -8 -8 -8 -8 -8 -9 -9 -9 -8 -8 -7 -7 -7 -7 -8 -7 -7 -6 -6 -5 -5 -5 -5 -5 -5 -5 -4 -4 -4 -3 -2 -2 -2 -2 -2 -2 -2 -2 -4 -4 -4 -5 -5
-9 -8 -8 -8 -8 -9 -10 -10 -9 -8 -8 -8 -8 -7 -7 -7 -7 -7 -7 -6 -6 -5 -5 -5 -5 -5 -5 -5 -5 -5 -5 -2 -2 -2 -2 -1 -2 -2 -3 -3 -4 -5 -5 -6
-9 -9 -9 -9 -9 -10 -9 -9 -8 -9 -9 -9 -8 -8 -7 -7 -7 -7 -7 -7 -6 -6 -6 -5 -5 -5 -5 -5 -5 -5 -5 -2 -2 -2 -2 -2 -2 -2 -2 -3 -4 -5 -5 -5
-10 -10 -10 -10 -10 -10 -10 -9 -9 -9 -9 -9 -9 -8 -8 -7 -7 -7 -7 -7 -7 -6 -6 -6 -6 -6 -5 -5 -5 -5 -2 -1 -2 -2 -2 -2 -2 -2 -3 -4 -5 -5 -5 -6
-10 -10 -10 -11 -11 -10 -9 -10 -10 -9 -9 -9 -9 -8 -8 -7 -7 -7 -7 -7 -7 -7 -6 -6 -6 -6 -6 -5 -5 -5 -1 -2 -2 -2 -2 -2 -2 -2 -3 -4 -5 -6 -6 -6
-10 -10 -10 -10 -10 -9 -10 -11 -10 -10 -10 -9 -9 -9 -8 -7 -7 -7 -7 -7 -8 -7 -6 -6 -6 -5 -4 -5 -3 -2 -2 -2 -2 -2 -1 -1 -2 -3 -3 -4 -5 -6 -6 -6
-10 -9 -9 -9 -9 -10 -11 -10 -10 -9 -9 -8 -8 -8 -8 -8 -7 -7 -7 -7 -7 -8 -8 -7 -6 -6 -5 -2 -1 -1 -1 -2 -2 -2 -2 -2 -2 -2 -4 -4 -6 -6 -6 -6
-9 -9 -9 -9 -9 -10 -10 -10 -10 -9 -8 -8 -8 -7 -8 -7 -8 -7 -7 -7 -7 -7 -8 -8 -7 -5 -2 -1 -1 -1 -2 -1 -1 -2 -2 -2 -3 -4 -4 -5 -6 -6 -6 -6
-9 -10 -9 -9 -9 -9 -9 -9 -9 -9 -8 -8 -8 -8 -8 -7 -8 -8 -7 -8 -7 -8 -7 -8 -7 -4 -2 -2 -2 -1 -1 -1 -2 -1 -1 -2 -3 -4 -5 -5 -6 -6 -6 -7
-9 -8 -9 -8 -9 -8 -7 -8 -7 -7 -7 -6 -6 -6 -8 -8 -8 -8 -8 -8 -8 -8 -9 -7 -4 -2 -4 -3 -3 -3 -3 -2 -2 -3 -3 -3 -4 -5 -5 -6 -6 -6 -7 -7
-9 -9 -8 -8 -8 -7 -7 -7 -7 -6 -6 -6 -7 -8 -8 -8 -8 -8 -8 -7 -8 -7 -6 -4 -2 -3 -4 -4 -3 -3 -3 -3 -3 -3 -3 -4 -5 -6 -6 -6 -6 -6 -7 -8
-9 -8 -8 -8 -8 -8 -7 -6 -6 -6 -6 -7 -8 -8 -8 -8 -7 -7 -7 -7 -7 -5 -3 -3 -3 -3 -3 -3 -3 -3 -3 -3 -3 -4 -5 -5 -6 -6 -7 -6 -6 -7 -8 -8
-9 -8 -7 -7 -6 -6 -6 -6 -6 -6 -6 -6 -7 -8 -8 -7 -8 -8 -7 -5 -2 -3 -3 -3 -3 -3 -3 -3 -3 -3 -2 -2 -3 -5 -5 -6 -6 -6 -6 -7 -7 -7 -8 -8

GFSNW_700_temp_249.txt.gz
Temp
-5 -5 -4 -2 -2 -1 -1 -1 -1 -0 -0 -1 -2 -1 -1 -1 -0 -0 -0 0 2 3 2 3 5 5 3 4 4 5 4 5 6 6 4 5 4 5 5 4 5 4 2 2
-6 -6 -5 -4 -3 -3 -3 -3 -4 -2 -1 -3 -2 -2 -2 -2 -1 -0 -1 0 1 2 3 3 3 3 3 3 3 3 3 4 4 5 3 3 4 4 4 3 2 3 3 4
-6 -6 -6 -6 -5 -6 -5 -6 -5 -4 -4 -3 -3 -3 -2 -2 -1 -1 -0 0 1 1 2 2 2 2 2 2 2 3 3 3 3 5 4 2 3 4 4 3 2 2 3 4
-6 -6 -6 -6 -6 -6 -6 -6 -6 -3 -3 -4 -3 -2 -2 -2 -2 -1 -1 -0 1 1 1 1 1 2 2 1 1 1 2 2 2 3 3 2 2 2 3 3 3 3 3 4
-6 -6 -7 -6 -6 -6 -6 -7 -6 -6 -5 -4 -4 -3 -2 -2 -1 -1 -1 -1 -0 -0 -0 0 1 1 2 1 -0 1 1 1 1 1 1 2 2 3 3 3 3 3 3 4
-7 -6 -7 -8 -8 -6 -5 -7 -7 -6 -5 -5 -5 -4 -3 -2 -2 -2 -1 -1 -1 -0 -0 -0 -1 -0 -0 -0 -0 -0 -0 -0 -0 1 2 2 2 3 3 3 3 3 3 3
-7 -7 -7 -7 -7 -7 -7 -7 -7 -6 -6 -4 -4 -4 -3 -3 -2 -2 -2 -1 -1 -1 -1 -1 -1 -1 -1 -1 -1 -1 -1 -1 -1 -1 1 1 2 3 3 2 2 2 2 1
-8 -7 -7 -7 -7 -7 -7 -7 -8 -7 -6 -5 -4 -3 -3 -3 -3 -3 -3 -2 -2 -2 -2 -2 -2 -2 -2 -2 -2 -1 -1 -1 -1 -1 1 2 3 3 3 3 2 1 1 0
-8 -8 -8 -7 -7 -7 -7 -7 -7 -7 -6 -5 -4 -3 -3 -3 -3 -3 -3 -3 -3 -2 -2 -3 -2 -1 -0 -0 -2 -2 -2 -1 -2 -1 -0 2 3 1 2 1 1 1 1 -0
-8 -8 -8 -8 -8 -8 -7 -7 -8 -7 -7 -6 -6 -4 -3 -3 -3 -3 -3 -3 -3 -3 -2 -2 -2 -1 -0 -0 -0 -1 -3 -3 -2 -2 -2 -0 1 1 0 -0 0 -0 -1 -1
-8 -8 -8 -8 -8 -8 -8 -7 -7 -8 -7 -7 -7 -6 -5 -4 -4 -3 -3 -3 -3 -3 -3 -3 -3 -2 -1 -0 1 -0 -2 -2 -2 -3 -2 -1 -0 -1 -1 -0 -0 -1 -1 -1
-8 -8 -8 -8 -8 -9 -8 -8 -8 -8 -8 -7 -7 -6 -5 -5 -4 -4 -4 -3 -3 -3 -2 -3 -3 -2 -1 -1 -0 0 0 -0 -0 -0 -0 -1 -1 -1 -1 -1 -1 -1 -2 -3
-8 -8 -8 -8 -8 -9 -8 -8 -8 -8 -8 -8 -8 -7 -6 -6 -5 -4 -4 -3 -3 -3 -3 -3 -3 -2 -1 -1 -1 -0 -1 -1 -1 -1 -1 -1 -1 -2 -1 -1 -0 -1 -2 -3
-9 -8 -8 -8 -8 -8 -8 -9 -9 -9 -8 -9 -7 -7 -7 -6 -6 -5 -4 -4 -4 -4 -4 -4 -3 -3 -3 -2 -2 -2 -1 -2 -2 -2 -2 -2 -1 -2 -2 -1 -1 -2 -2 -3
-9 -9 -8 -8 -8 -9 -9 -9 -8 -9 -9 -8 -8 -7 -7 -7 -7 -6 -5 -5 -5 -4 -4 -4 -4 -4 -4 -3 -3 -3 -3 -3 -2 -1 -1 -2 -2 -3 -1 -2 -2 -2 -2 -3
-9 -9 -8 -8 -9 -9 -10 -10 -10 -9 -9 -9 -9 -7 -7 -7 -7 -7 -6 -5 -5 -5 -5 -5 -5 -4 -4 -5 -4 -3 -2 -2 -1 -2 -3 -3 -2 -1 -1 -2 -2 -2 -2 -3
-9 -9 -9 -9 -9 -10 -10 -10 -9 -9 -9 -9 -9 -8 -7 -7 -7 -7 -7 -6 -6 -6 -6 -6 -6 -6 -5 -5 -5 -4 -4 -4 -2 -2 -2 -3 -1 -2 -2 -2 -2 -2 -2 -3
-9 -9 -9 -10 -10 -10 -10 -10 -9 -9 -9 -9 -10 -8 -8 -7 -7 -7 -7 -7 -7 -7 -6 -6 -6 -7 -7 -6 -5 -5 -4 -1 -1 -1 -1 -2 -3 -2 -1 -2 -2 -3 -3 -4
-10 -9 -10 -11 -11 -11 -9 -10 -10 -10 -9 -9 -9 -9 -8 -7 -7 -7 -6 -7 -7 -7 -7 -7 -7 -7 -6 -6 -6 -5 -2 -0 -1 -2 -2 -3 -3 -2 -1 -2 -3 -3 -4 -4
-10 -11 -11 -11 -10 -10 -10 -11 -10 -9 -10 -10 -9 -8 -8 -7 -7 -7 -7 -7 -8 -8 -7 -7 -7 -6 -5 -6 -6 -3 -1 -2 -3 -5 -3 -3 -3 -1 -2 -3 -3 -3 -4 -5
-11 -11 -11 -10 -10 -11 -11 -9 -10 -9 -10 -9 -8 -8 -8 -8 -7 -7 -8 -8 -8 -8 -7 -7 -7 -6 -6 -4 -1 -1 -2 -2 -3 -4 -5 -5 -4 -3 -4 -4 -4 -4 -4 -5
-11 -10 -10 -11 -10 -10 -9 -10 -10 -9 -9 -7 -8 -8 -9 -8 -8 -8 -8 -8 -8 -8 -7 -8 -7 -6 -4 -2 -2 -2 -2 -2 -2 -3 -5 -6 -5 -3 -3 -4 -4 -5 -5 -5
-11 -11 -10 -9 -10 -10 -9 -10 -9 -9 -7 -7 -7 -8 -9 -9 -8 -8 -8 -8 -8 -8 -8 -8 -6 -5 -3 -3 -4 -3 -3 -3 -3 -3 -3 -5 -4 -3 -3 -4 -5 -5 -6 -5
-9 -9 -9 -10 -9 -8 -8 -8 -8 -8 -7 -6 -8 -8 -9 -9 -8 -8 -8 -8 -8 -8 -7 -6 -6 -3 -3 -3 -4 -3 -3 -3 -3 -4 -4 -3 -3 -3 -3 -5 -5 -6 -6 -6
-9 -9 -9 -8 -8 -8 -7 -7 -7 -7 -6 -7 -9 -9 -9 -9 -8 -8 -8 -8 -8 -7 -6 -5 -3 -3 -4 -4 -4 -4 -4 -3 -3 -4 -4 -3 -3 -3 -4 -6 -6 -6 -6 -6
-9 -9 -8 -8 -8 -8 -7 -8 -7 -8 -8 -8 -8 -8 -8 -8 -8 -8 -8 -7 -6 -4 -4 -3 -3 -4 -4 -4 -4 -4 -4 -4 -3 -3 -3 -3 -4 -5 -6 -6 -6 -6 -6 -6
-9 -9 -8 -8 -8 -7 -7 -7 -7 -7 -7 -8 -8 -8 -7 -8 -8 -7 -7 -5 -3 -4 -4 -4 -4 -4 -4 -4 -4 -4 -4 -3 -3 -3 -3 -4 -5 -5 -6 -7 -7 -6 -6 -7

GFSNW_700_temp_252.txt.gz
Temp
-5 -4 -2 -1 -0 -0 -0 -1 -2 -2 -2 -1 -1 -0 -0 0 1 1 0 2 2 3 3 4 6 5 3 2 4 5 5 5 6 7 5 6 5 6 6 5 5 4 4 3
-6 -6 -5 -4 -1 -1 -1 -2 -3 -2 -1 -2 -2 -1 -1 -0 -0 0 -0 0 1 2 2 3 4 3 3 3 4 5 4 4 5 6 5 4 5 5 5 5 4 3 3 4
-5 -6 -6 -5 -4 -4 -3 -5 -4 -4 -1 -1 -2 -2 -1 -1 -1 -0 0 -0 0 1 0 1 2 2 2 3 3 4 4 4 4 4 4 2 3 4 4 4 4 3 3 4
-5 -5 -6 -6 -6 -6 -4 -5 -4 -3 -2 -1 -2 -2 -1 -1 -1 -1 -0 0 0 1 1 1 1 2 1 2 2 2 2 2 3 3 3 2 3 3 3 4 4 4 4 4
-5 -5 -5 -6 -6 -6 -5 -5 -5 -5 -4 -2 -2 -2 -1 -1 -1 -1 -1 -0 1 1 1 1 1 2 1 0 0 1 1 1 2 2 2 2 2 3 3 3 4 4 4 4
-5 -6 -6 -6 -7 -7 -6 -5 -5 -5 -4 -4 -4 -3 -2 -1 -1 -1 -1 -1 -0 0 1 1 0 0 0 1 1 1 1 1 1 1 1 2 3 3 3 3 4 4 4 4
-6 -6 -6 -6 -7 -6 -6 -7 -6 -6 -5 -4 -4 -3 -2 -1 -1 -0 -1 -1 -1 -0 -0 -0 -0 -0 -0 0 0 0 0 -0 -0 -0 0 1 3 3 4 3 4 4 4 2
-6 -6 -6 -6 -7 -7 -7 -7 -6 -6 -5 -4 -3 -3 -3 -2 -2 -1 -1 -1 -1 -1 -1 -1 -1 -1 -1 -1 -0 -0 -0 -1 -1 -1 0 2 2 4 4 4 4 3 2 1
-6 -6 -6 -7 -7 -7 -8 -7 -6 -6 -6 -5 -4 -2 -2 -2 -2 -2 -2 -2 -2 -2 -1 -2 -2 -0 -0 1 0 -0 -1 -1 -1 -2 -1 1 3 3 3 3 2 2 2 1
-7 -7 -7 -7 -7 -8 -7 -7 -7 -6 -6 -5 -4 -4 -3 -2 -2 -2 -2 -3 -2 -2 -2 -2 -2 -1 1 1 -1 -0 -1 -2 -1 -1 -1 -0 2 2 1 1 1 1 1 1
-8 -7 -7 -7 -8 -8 -8 -7 -7 -7 -7 -6 -5 -5 -4 -4 -3 -3 -2 -3 -2 -2 -2 -2 -2 -2 -0 0 1 -0 0 -1 -2 -2 -2 -2 1 1 0 0 1 0 0 1
-8 -8 -8 -8 -8 -8 -8 -8 -8 -7 -7 -6 -5 -5 -4 -4 -3 -3 -3 -3 -2 -2 -2 -2 -2 -2 -1 -0 -0 0 -0 0 -0 -0 -0 1 0 0 0 0 1 -0 0 -0
-9 -9 -9 -9 -8 -9 -9 -8 -8 -8 -8 -7 -7 -6 -5 -4 -4 -4 -3 -3 -3 -3 -3 -2 -2 -2 -1 -1 -1 -0 1 1 -1 -0 -0 0 -1 -1 -1 -2 -1 -0 -1 -1
-9 -9 -9 -9 -8 -9 -9 -9 -8 -8 -8 -8 -7 -6 -6 -5 -4 -4 -4 -3 -3 -3 -3 -3 -3 -3 -2 -2 -1 -1 -0 -0 -1 -1 -0 -1 -1 -1 -1 -2 -1 -1 -1 -2
-9 -9 -9 -9 -9 -9 -9 -10 -9 -10 -9 -9 -8 -7 -7 -6 -5 -5 -5 -5 -5 -4 -4 -4 -4 -3 -3 -3 -2 -2 -1 -1 -1 -0 0 -0 -1 -1 -2 -2 -1 -1 -2 -2
-9 -9 -10 -10 -10 -9 -9 -10 -10 -10 -9 -9 -9 -8 -7 -7 -6 -6 -5 -5 -5 -5 -4 -4 -4 -4 -4 -4 -4 -3 -2 -2 -3 0 0 -0 -1 -2 -2 -2 -2 -2 -3 -3
-9 -9 -10 -10 -10 -10 -9 -9 -9 -9 -10 -9 -9 -8 -8 -8 -7 -7 -6 -6 -6 -5 -5 -5 -5 -5 -4 -4 -4 -3 -3 -4 -1 -0 -0 -1 -1 -2 -2 -2 -2 -2 -3 -3
-9 -10 -10 -11 -11 -10 -10 -10 -9 -9 -10 -10 -8 -8 -7 -8 -7 -7 -7 -6 -6 -6 -5 -5 -5 -5 -6 -5 -4 -4 -3 -2 -1 0 -1 -2 -3 -3 -4 -4 -2 -2 -3 -3
-10 -10 -11 -12 -11 -10 -9 -10 -9 -9 -9 -10 -8 -8 -8 -7 -8 -8 -7 -7 -8 -7 -6 -5 -6 -6 -6 -4 -5 -5 -3 -1 -1 -1 -2 -3 -4 -3 -4 -4 -2 -3 -3 -3
-11 -12 -12 -12 -10 -10 -10 -11 -10 -10 -9 -9 -9 -8 -8 -7 -7 -7 -8 -8 -8 -7 -7 -6 -7 -5 -4 -4 -4 -4 -2 -1 -2 -3 -3 -4 -4 -4 -4 -5 -3 -4 -4 -4
-12 -12 -11 -11 -11 -11 -11 -11 -10 -10 -9 -9 -7 -8 -8 -8 -7 -8 -8 -8 -8 -8 -7 -7 -7 -6 -4 -3 -2 -1 -2 -2 -3 -3 -4 -4 -5 -5 -5 -5 -4 -4 -5 -4
-12 -11 -11 -11 -11 -11 -10 -10 -10 -10 -9 -8 -6 -6 -8 -8 -8 -8 -8 -8 -7 -7 -7 -7 -7 -6 -5 -2 -2 -2 -3 -2 -3 -3 -3 -3 -3 -5 -5 -5 -5 -5 -5 -4
-12 -11 -11 -10 -11 -10 -10 -10 -9 -9 -7 -6 -7 -8 -8 -8 -8 -8 -8 -8 -8 -7 -7 -7 -6 -6 -4 -3 -3 -3 -4 -5 -4 -4 -4 -4 -4 -5 -5 -5 -4 -4 -4 -4
-11 -11 -11 -10 -10 -9 -9 -8 -7 -6 -6 -8 -8 -8 -8 -8 -8 -8 -8 -8 -7 -7 -6 -6 -6 -4 -3 -4 -4 -4 -3 -4 -4 -4 -3 -4 -3 -5 -4 -3 -4 -5 -4 -5
-11 -11 -10 -9 -9 -9 -7 -7 -6 -6 -7 -7 -8 -8 -8 -8 -8 -8 -7 -7 -7 -6 -6 -6 -3 -4 -4 -4 -5 -4 -4 -4 -4 -4 -4 -3 -3 -4 -4 -4 -5 -5 -5 -6
-10 -10 -9 -8 -9 -8 -8 -7 -7 -7 -7 -8 -8 -8 -8 -8 -8 -8 -8 -7 -7 -5 -4 -4 -4 -4 -4 -5 -4 -4 -4 -4 -4 -3 -3 -4 -4 -4 -4 -4 -4 -5 -6 -7
-9 -8 -8 -9 -8 -8 -7 -8 -7 -7 -8 -7 -7 -8 -8 -8 -8 -8 -7 -7 -3 -4 -4 -5 -5 -5 -5 -4 -4 -4 -4 -4 -4 -3 -3 -3 -4 -4 -4 -4 -5 -6 -7 -7